* Astronomy

Members Login
Username 
 
Password 
    Remember Me  
Post Info TOPIC: Asteroid 2012 VF6


L

Posts: 131433
Date:
Asteroid 2012 VF6
Permalink  
 


Orbital elements:
2012 VF6                                                 Earth MOID = 0.3790 AU
Epoch 2012 Sept. 30.0 TT = JDT 2456200.5                MPC
M 345.67626              (2000.0)            P               Q
n   0.16633875     Peri.  218.56411     +0.41252682     -0.72289658
a   3.2744655      Node   219.35736     +0.88651859     +0.17862442
e   0.6107664      Incl.   60.93477     -0.20953860     -0.66746824
P   5.93           H   21.4           G   0.15           U   8

MPEC 2012 - V26



__________________
Page 1 of 1  sorted by
 
Quick Reply

Please log in to post quick replies.



Create your own FREE Forum
Report Abuse
Powered by ActiveBoard